Wasilla, AK

2:37 PM AKDT on March 30, 2017 (GMT -0800)
Wasilla

Weather History for PAWS - August, 2013

Change the Weather History Date:

Sunday, August 11, 2013

  Actual Average Record
Temperature  
Mean Temperature 54 °F -  
Max Temperature 59 °F 68 °F 79 °F (1990)
Min Temperature 50 °F 48 °F 35 °F (1969)
Degree Days  
Heating Degree Days 10    
Growing Degree Days 4 (Base 50)    
Moisture  
Dew Point 51 °F    
Average Humidity 87    
Maximum Humidity 94    
Minimum Humidity 77    
Precipitation  
Precipitation 0.16 in - - ()
Sea Level Pressure  
Sea Level Pressure 30.01 in    
Wind  
Wind Speed 1 mph (West)    
Max Wind Speed 6 mph    
Max Gust Speed -    
Visibility 9 miles    
Events      
Averages and records for this station are not official NWS values.
T = Trace of Precipitation, MM = Missing Value Source: NWS Daily Summary

Daily Weather History Graph

Daily Weather History Graph

Search for Another Location

Airport or City:

Trip Planner

Search our weather history database for the weather conditions in past years. The results will help you decide how hot, cold, wet, or windy it might be!

Date:

Astronomy

Aug. 11, 2013 Rise Set
Actual Time 5:55 AM AKDT 10:09 PM AKDT
Civil Twilight 4:56 AM AKDT 11:06 PM AKDT
Nautical Twilight 3:14 AM AKDT 12:44 AM AKDT
Astronomical Twilight Sun does not rise Sun does not rise
Moon 12:42 PM AKDT (8/11) 10:36 PM AKDT (8/11)
Length of Visible Light 18h 09m
Length of Day
16h 14m
Waxing Crescent, 23% of the Moon is Illuminated
Aug 11
Waxing Crescent
Aug 14
First Quarter
Aug 20
Full
Aug 28
Last Quarter
Sep 5
New

Hourly Weather History & Observations

Time (AKDT) Temp. Dew Point Humidity Pressure Visibility Wind Dir Wind Speed Gust Speed Precip Events Conditions
12:16 AM 53.6 °F 48.2 °F 82% 30.00 in 10.0 mi Calm Calm - N/A   Clear
12:36 AM 51.8 °F 48.2 °F 88% 30.00 in 10.0 mi Calm Calm - N/A   Clear
12:56 AM 50.0 °F 46.4 °F 87% 30.01 in 6.0 mi Calm Calm - N/A   Clear
1:16 AM 51.8 °F 46.4 °F 82% 30.01 in 2.5 mi Calm Calm - N/A   Scattered Clouds
1:36 AM 51.8 °F 46.4 °F 82% 30.01 in 10.0 mi Calm Calm - N/A   Scattered Clouds
1:56 AM 50.0 °F 46.4 °F 87% 30.02 in 9.0 mi Calm Calm - N/A   Mostly Cloudy
2:16 AM 50.0 °F 46.4 °F 87% 30.02 in 10.0 mi Calm Calm - N/A   Overcast
2:36 AM 50.0 °F 46.4 °F 87% 30.02 in 10.0 mi Calm Calm - N/A   Mostly Cloudy
2:56 AM 51.8 °F 48.2 °F 88% 30.02 in 10.0 mi Calm Calm - N/A   Overcast
3:16 AM 51.8 °F 46.4 °F 82% 30.02 in 10.0 mi Calm Calm - N/A   Overcast
3:36 AM 51.8 °F 46.4 °F 82% 30.03 in 10.0 mi Calm Calm - N/A   Overcast
3:56 AM 51.8 °F 46.4 °F 82% 30.03 in 10.0 mi Calm Calm - N/A   Overcast
4:16 AM 51.8 °F 48.2 °F 88% 30.02 in 10.0 mi ENE 4.6 mph - N/A   Overcast
4:36 AM 51.8 °F 46.4 °F 82% 30.02 in 10.0 mi East 3.5 mph - N/A   Overcast
4:56 AM 53.6 °F 46.4 °F 77% 30.02 in 10.0 mi Calm Calm - N/A   Overcast
5:16 AM 51.8 °F 46.4 °F 82% 30.02 in 10.0 mi Calm Calm - N/A   Overcast
5:36 AM 51.8 °F 48.2 °F 88% 30.02 in 10.0 mi Calm Calm - N/A   Overcast
5:56 AM 51.8 °F 48.2 °F 88% 30.02 in 10.0 mi Calm Calm - 0.01 in   Overcast
6:16 AM 51.8 °F 48.2 °F 88% 30.02 in 10.0 mi NNE 3.5 mph - 0.01 in   Overcast
6:36 AM 51.8 °F 48.2 °F 88% 30.02 in 10.0 mi Calm Calm - 0.03 in   Overcast
6:56 AM 51.8 °F 48.2 °F 88% 30.02 in 10.0 mi Calm Calm - 0.04 in   Overcast
7:16 AM 51.8 °F 48.2 °F 88% 30.02 in 9.0 mi Calm Calm - 0.01 in   Overcast
7:36 AM 51.8 °F 48.2 °F 88% 30.01 in 10.0 mi Calm Calm - 0.02 in   Overcast
7:56 AM 51.8 °F 48.2 °F 88% 30.01 in 6.0 mi Calm Calm - 0.03 in   Overcast
8:16 AM 53.6 °F 48.2 °F 82% 30.01 in 10.0 mi WNW 3.5 mph - 0.01 in   Overcast
8:36 AM 53.6 °F 50.0 °F 88% 30.01 in 10.0 mi WNW 4.6 mph - 0.01 in   Overcast
8:56 AM 53.6 °F 50.0 °F 88% 30.01 in 10.0 mi NW 5.8 mph - 0.01 in   Overcast
9:16 AM 53.6 °F 50.0 °F 88% 30.01 in 10.0 mi NW 3.5 mph - 0.01 in   Overcast
9:36 AM 53.6 °F 50.0 °F 88% 30.01 in 10.0 mi Calm Calm - 0.01 in   Overcast
9:56 AM 55.4 °F 51.8 °F 88% 30.01 in 10.0 mi Calm Calm - 0.01 in   Overcast
10:16 AM 55.4 °F 51.8 °F 88% 30.02 in 10.0 mi South 3.5 mph - 0.01 in   Overcast
10:36 AM 55.4 °F 51.8 °F 88% 30.01 in 10.0 mi Calm Calm - 0.01 in   Mostly Cloudy
10:56 AM 55.4 °F 51.8 °F 88% 30.01 in 10.0 mi Calm Calm - 0.01 in   Overcast
11:16 AM 55.4 °F 51.8 °F 88% 30.01 in 10.0 mi SW 3.5 mph - 0.01 in   Overcast
11:36 AM 55.4 °F 51.8 °F 88% 30.01 in 10.0 mi Calm Calm - 0.01 in   Overcast
11:56 AM 55.4 °F 51.8 °F 88% 30.01 in 10.0 mi Calm Calm - 0.02 in   Overcast
12:16 PM 55.4 °F 51.8 °F 88% 30.01 in 10.0 mi Calm Calm - N/A   Overcast
12:36 PM 57.2 °F 51.8 °F 82% 30.00 in 10.0 mi Calm Calm - N/A   Overcast
12:56 PM 57.2 °F 51.8 °F 82% 30.00 in 10.0 mi SW 3.5 mph - N/A   Overcast
1:16 PM 57.2 °F 51.8 °F 82% 30.00 in 10.0 mi Calm Calm - N/A   Mostly Cloudy
1:36 PM 57.2 °F 53.6 °F 88% 30.00 in 10.0 mi Calm Calm - N/A   Overcast
1:56 PM 57.2 °F 53.6 °F 88% 30.00 in 10.0 mi Calm Calm - N/A   Overcast
2:16 PM 57.2 °F 53.6 °F 88% 30.00 in 10.0 mi SSW 3.5 mph - 0.01 in   Overcast
2:36 PM 57.2 °F 53.6 °F 88% 30.00 in 10.0 mi West 4.6 mph - 0.01 in   Overcast
2:56 PM 57.2 °F 53.6 °F 88% 30.00 in 10.0 mi West 4.6 mph - 0.01 in   Overcast
3:16 PM 57.2 °F 53.6 °F 88% 30.00 in 10.0 mi WNW 3.5 mph - N/A   Overcast
3:36 PM 59.0 °F 53.6 °F 82% 29.99 in 10.0 mi WNW 4.6 mph - N/A   Overcast
3:56 PM 59.0 °F 53.6 °F 82% 29.99 in 10.0 mi NNW 3.5 mph - N/A   Overcast
4:16 PM 59.0 °F 53.6 °F 82% 29.99 in 10.0 mi NNW 3.5 mph - N/A   Overcast
4:36 PM 59.0 °F 53.6 °F 82% 29.99 in 10.0 mi Calm Calm - N/A   Overcast
4:56 PM 59.0 °F 53.6 °F 82% 29.99 in 10.0 mi West 5.8 mph - N/A   Overcast
5:16 PM 57.2 °F 53.6 °F 88% 29.99 in 10.0 mi West 4.6 mph - 0.01 in   Overcast
5:36 PM 57.2 °F 53.6 °F 88% 29.99 in 10.0 mi West 5.8 mph - 0.01 in   Overcast
5:56 PM 57.2 °F 53.6 °F 88% 29.99 in 10.0 mi West 3.5 mph - 0.01 in   Overcast
6:16 PM 57.2 °F 53.6 °F 88% 29.98 in 10.0 mi Calm Calm - N/A   Overcast
6:36 PM 57.2 °F 53.6 °F 88% 29.98 in 10.0 mi West 3.5 mph - N/A   Overcast
6:56 PM 57.2 °F 53.6 °F 88% 29.98 in 10.0 mi West 3.5 mph - N/A   Overcast
7:16 PM 57.2 °F 53.6 °F 88% 29.98 in 10.0 mi West 3.5 mph - 0.01 in   Overcast
7:36 PM 57.2 °F 53.6 °F 88% 29.99 in 10.0 mi West 3.5 mph - 0.01 in   Overcast
7:56 PM 57.2 °F 53.6 °F 88% 29.99 in 10.0 mi Calm Calm - 0.01 in   Overcast
8:16 PM 57.2 °F 53.6 °F 88% 29.99 in 10.0 mi Calm Calm - N/A   Overcast
8:36 PM 57.2 °F 53.6 °F 88% 29.99 in 10.0 mi Calm Calm - N/A   Overcast
8:56 PM 57.2 °F 53.6 °F 88% 29.99 in 10.0 mi Calm Calm - N/A   Overcast
9:16 PM 57.2 °F 53.6 °F 88% 29.99 in 10.0 mi Calm Calm - N/A   Overcast
9:36 PM 57.2 °F 53.6 °F 88% 30.00 in 10.0 mi Calm Calm - N/A   Overcast
9:56 PM 57.2 °F 53.6 °F 88% 30.00 in 2.5 mi Calm Calm - N/A   Overcast
10:16 PM 57.2 °F 53.6 °F 88% 30.01 in 9.0 mi Calm Calm - N/A   Overcast
10:36 PM 57.2 °F 53.6 °F 88% 30.01 in 5.0 mi Calm Calm - N/A   Overcast
10:56 PM 55.4 °F 53.6 °F 94% 30.01 in 1.5 mi Calm Calm - N/A   Overcast
11:16 PM 55.4 °F 53.6 °F 94% 30.02 in 0.5 mi Calm Calm - N/A   Overcast
11:36 PM 55.4 °F 53.6 °F 94% 30.02 in 0.8 mi Calm Calm - N/A   Overcast
11:56 PM 55.4 °F 51.8 °F 88% 30.02 in 0.5 mi Calm Calm - N/A   Overcast